WetterOnline ( https://www.wetteronline.at )

Wetter aktuell Bamberg

Aktuelles Wetter: Bamberg (243m)

6-stündlich | Neueste Meldungen
Ortszeit Temperatur Wetter
Mi, 26.06. 8:00 22.8° C wolkenlos
Mi, 26.06. 2:00 17.2° C leicht bewölkt
Di, 25.06. 20:00 31.4° C leicht bewölkt
Di, 25.06. 14:00 31.5° C leicht bewölkt
Di, 25.06. 8:00 22.6° C leicht bewölkt
Di, 25.06. 2:00 15.2° C -
Mo, 24.06. 20:00 29.1° C leicht bewölkt
Mo, 24.06. 14:00 29.5° C wolkenlos
Ortszeit Temperatur Wetter
Mi, 26.06. 11:30 31.5° C leicht bewölkt
Mi, 26.06. 11:20 31.5° C leicht bewölkt
Mi, 26.06. 11:10 30.9° C wolkig
Mi, 26.06. 11:00 30.2° C leicht bewölkt
Mi, 26.06. 10:50 30.2° C wolkig
Mi, 26.06. 10:40 30.7° C wolkig
Mi, 26.06. 10:30 29.4° C wolkig
Mi, 26.06. 10:00 28.1° C leicht bewölkt
Mi, 26.06. 9:30 26.4° C leicht bewölkt
Mi, 26.06. 9:00 25.6° C leicht bewölkt
Mi, 26.06. 8:30 24.2° C wolkenlos
Ortszeit Relative Feuchte Sichtweite
Mi, 26.06. 8:00 68% 27 km
Mi, 26.06. 2:00 93% 22 km
Di, 25.06. 20:00 41% 45 km
Di, 25.06. 14:00 38% 60 km
Di, 25.06. 8:00 59% 40 km
Di, 25.06. 2:00 87% 30 km
Mo, 24.06. 20:00 35% 50 km
Mo, 24.06. 14:00 38% >70 km
Ortszeit Relative Feuchte Sichtweite
Mi, 26.06. 11:30 40% 55 km
Mi, 26.06. 11:20 40% -
Mi, 26.06. 11:10 42% -
Mi, 26.06. 11:00 46% 30 km
Mi, 26.06. 10:50 46% -
Mi, 26.06. 10:40 47% -
Mi, 26.06. 10:30 50% 40 km
Mi, 26.06. 10:00 54% 55 km
Mi, 26.06. 9:30 56% 45 km
Mi, 26.06. 9:00 57% 27 km
Mi, 26.06. 8:30 63% 30 km
Ortszeit Niederschlagsmenge Niederschlagsart
Mi, 26.06. 8:00 0.0 l/m2 in 12 Std. -
Mi, 26.06. 2:00 0.0 l/m2 in 6 Std. -
Di, 25.06. 20:00 0.0 l/m2 in 12 Std. -
Di, 25.06. 14:00 0.0 l/m2 in 6 Std. -
Di, 25.06. 8:00 0.0 l/m2 in 12 Std. -
Di, 25.06. 2:00 0.0 l/m2 in 6 Std. -
Mo, 24.06. 20:00 0.0 l/m2 in 12 Std. -
Mo, 24.06. 14:00 0.0 l/m2 in 6 Std. -
Ortszeit Niederschlagsmenge Niederschlagsart
Mi, 26.06. 11:30 0.0 l/m2 in 1 Std. -
Mi, 26.06. 11:20 keine Meldung -
Mi, 26.06. 11:10 keine Meldung -
Mi, 26.06. 11:00 0.0 l/m2 in 1 Std. -
Mi, 26.06. 10:50 keine Meldung -
Mi, 26.06. 10:40 keine Meldung -
Mi, 26.06. 10:30 0.0 l/m2 in 1 Std. -
Mi, 26.06. 10:00 0.0 l/m2 in 1 Std. -
Mi, 26.06. 9:30 0.0 l/m2 in 1 Std. -
Mi, 26.06. 9:00 0.0 l/m2 in 1 Std. -
Mi, 26.06. 8:30 0.0 l/m2 in 1 Std. -
Ortszeit Stärke Spitze Richtung
km/h Bft. km/h Grad Sektor
Mi, 26.06. 8:00 0 0 4 - -
Mi, 26.06. 2:00 4 1 11 120° SO
Di, 25.06. 20:00 7 2 18 150° SO
Di, 25.06. 14:00 7 2 29 200° S
Di, 25.06. 8:00 4 1 7 220° SW
Di, 25.06. 2:00 4 1 14 180° S
Mo, 24.06. 20:00 13 3 31 90° O
Mo, 24.06. 14:00 15 3 31 150° SO
Ortszeit Stärke Spitze Richtung
km/h Bft. km/h Grad Sektor
Mi, 26.06. 11:30 4 1 4 310° NW
Mi, 26.06. 11:20 4 1 - 310° NW
Mi, 26.06. 11:10 4 1 - 320° NW
Mi, 26.06. 11:00 4 1 11 170° S
Mi, 26.06. 10:50 4 1 - 170° S
Mi, 26.06. 10:40 4 1 - 180° S
Mi, 26.06. 10:30 6 1 9 170° S
Mi, 26.06. 10:00 7 2 11 150° SO
Mi, 26.06. 9:30 4 1 7 180° S
Mi, 26.06. 9:00 4 1 4 130° SO
Mi, 26.06. 8:30 2 1 4 90° O
Ortszeit Untergrenze Bedeckung Gattung
total tief tief mittel hoch
Mi, 26.06. 8:00 - 0/8 0/8 - - -
Mi, 26.06. 2:00 10500 m 3/8 0/8 - - -
Di, 25.06. 20:00 12000 m 5/8 0/8 - - -
Di, 25.06. 14:00 9000 m 3/8 0/8 - - -
Di, 25.06. 8:00 10500 m 8/8 0/8 - - -
Di, 25.06. 2:00 - - - - - -
Mo, 24.06. 20:00 12000 m 6/8 0/8 - - -
Mo, 24.06. 14:00 10500 m 0/8 0/8 - - -
Ortszeit Bedeckungsgrad in Achtel und Wolkenuntergrenze
Mi, 26.06. 11:30 3(9000m) 4(9000m)
Mi, 26.06. 11:20 3(9000m) 4(9000m)
Mi, 26.06. 11:10 7(9000m) 7(9000m)
Mi, 26.06. 11:00 8(9000m) 8(9000m)
Mi, 26.06. 10:50 8(9000m)
Mi, 26.06. 10:40 7(9000m)
Mi, 26.06. 10:30 5(9000m) 7(9000m) 7(10500m)
Mi, 26.06. 10:00 3(9000m) 8(9000m) 8(10500m)
Mi, 26.06. 9:30 3(9000m) 5(10500m)
Mi, 26.06. 9:00 3(10500m)
Mi, 26.06. 8:30 keine Wolken
Ortszeit Luftdruck NN (hPa) Tendenz (hPa in 3 Std.)
Mi, 26.06. 8:00 1022 + 0,6
Mi, 26.06. 2:00 1022 + 0,7
Di, 25.06. 20:00 1019 - 0,4
Di, 25.06. 14:00 1019 - 0,2
Di, 25.06. 8:00 1020 0,0
Di, 25.06. 2:00 1021 + 0,3
Mo, 24.06. 20:00 1019 - 0,2
Mo, 24.06. 14:00 1019 - 0,8
Ortszeit Luftdruck NN (hPa) Tendenz (hPa in 3 Std.)
Mi, 26.06. 11:30 1022 + 0,3
Mi, 26.06. 11:20 1022 keine Meldung
Mi, 26.06. 11:10 1022 keine Meldung
Mi, 26.06. 11:00 1022 + 0,4
Mi, 26.06. 10:50 1022 keine Meldung
Mi, 26.06. 10:40 1022 keine Meldung
Mi, 26.06. 10:30 1022 + 0,6
Mi, 26.06. 10:00 1022 + 0,8
Mi, 26.06. 9:30 1022 + 0,8
Mi, 26.06. 9:00 1022 + 0,9
Mi, 26.06. 8:30 1022 + 0,8
Ortszeit Schneehöhe (cm)
Mi, 26.06. 8:00 -
Mi, 26.06. 2:00 -
Di, 25.06. 20:00 -
Di, 25.06. 14:00 -
Di, 25.06. 8:00 -
Di, 25.06. 2:00 -
Mo, 24.06. 20:00 -
Mo, 24.06. 14:00 -
Ortszeit Schneehöhe (cm)
Mi, 26.06. 11:30 -
Mi, 26.06. 11:20 -
Mi, 26.06. 11:10 -
Mi, 26.06. 11:00 -
Mi, 26.06. 10:50 -
Mi, 26.06. 10:40 -
Mi, 26.06. 10:30 -
Mi, 26.06. 10:00 -
Mi, 26.06. 9:30 -
Mi, 26.06. 9:00 -
Mi, 26.06. 8:30 -
Link zu dieser Seite / Seite empfehlen

Das Wetter in ...